Flag for U.S.A. Weather past 2 weeks in Denver, Colorado, U.S.A.

Now
92 °F

Partly sunny.


Feels Like: 89 °F
Forecast: 62 / 89 °F
Wind: 9 mph from Northeast

Location: Buckley Air Force Base

Current Time: Jul 4, 2015 at 3:37:25 PM

Latest Report: Jul 4, 2015 at 2:58 PM


Visibility: 10 mi

Pressure: 29.75 "Hg (24.91 "Hg at 1593m altitude)

Humidity: 21%

Dew point: 47 °F

Location of DenverLocation

Historic Weather in Denver — Graph

°F

Denver temperature yesterday

Maximum temperature yesterday: 83 °F (at 5:58 PM)
Minimum temperature yesterday: 56 °F (at 4:58 AM)
Average temperature yesterday: 69 °F

Past Weeks' High & Low Weather Summary

 TemperatureHumidityPressure
High90 °F (Jun 19, 2:58 PM)100% (Jun 26, 3:58 AM)30.19 "Hg (Jun 26, 3:58 AM)
Low56 °F (Jul 2, 7:58 AM)17% (Jun 19, 1:58 PM)29.68 "Hg (Jun 21, 7:58 PM)
Average72 °F57%29.95 "Hg
* Reported Jun 19 1:58 PM — Jul 4 1:58 PM, Denver, Weather by CustomWeather, © 2015

Note: Actual official high and low records may vary slightly from our data, if they occured in-between our weather recording intervals... More about our weather records

Advertising

Denver weather history for previous 24 hours

 ConditionsComfort  
Time TempWeatherWind HumidityBarometerVisibility
1:58 PM
Sat, Jul 4
90 °FScattered clouds.7 mph22%29.77 "Hg10 mi
12:58 PM89 °FScattered clouds.5 mph23%29.78 "Hg10 mi
11:58 AM88 °FScattered clouds.8 mph30%29.79 "Hg10 mi
10:58 AM83 °FScattered clouds.3 mph37%29.80 "Hg10 mi
9:58 AM80 °FScattered clouds.6 mph42%29.80 "Hg10 mi
8:58 AM74 °FScattered clouds.10 mph51%29.81 "Hg10 mi
7:58 AM68 °FScattered clouds.8 mph59%29.83 "Hg10 mi
6:58 AM64 °FScattered clouds.5 mph68%29.81 "Hg10 mi
5:58 AM63 °FPassing clouds.9 mph66%29.79 "Hg10 mi
4:58 AM63 °FPassing clouds.12 mph64%29.79 "Hg10 mi
3:58 AM64 °FPassing clouds.13 mph62%29.81 "Hg10 mi
2:58 AM64 °FPassing clouds.10 mph63%29.83 "Hg10 mi
1:58 AM63 °FPassing clouds.10 mph71%29.85 "Hg10 mi
12:58 AM64 °FPassing clouds.6 mph68%29.87 "Hg10 mi
11:58 PM
Fri, Jul 3
64 °FPassing clouds.8 mph74%29.90 "Hg10 mi
10:58 PM68 °FPassing clouds.12 mph63%29.92 "Hg10 mi
9:58 PM69 °FPassing clouds.13 mph63%29.92 "Hg10 mi
8:58 PM72 °FScattered clouds.12 mph52%29.90 "Hg10 mi
7:58 PM76 °FScattered clouds.6 mph54%29.90 "Hg10 mi
6:58 PM81 °FPassing clouds.6 mph39%29.88 "Hg10 mi
5:58 PM83 °FPassing clouds.6 mph39%29.87 "Hg10 mi
4:58 PM82 °FScattered clouds.8 mph43%29.88 "Hg10 mi
3:58 PM82 °FScattered clouds.5 mph42%29.90 "Hg10 mi
Weather by CustomWeather, © 2015

See weather overviewHow to use our weather pages